| time (UTC) | temp C | wind direction | speed KPH | gust KPH | rain 1hr cm | rain 24hr cm | rain mn cm | humidity % | barometer mb |
| 20260508005102 | 13 | 316 | 0.0 | 0.0 | 0.00 | 1.91 | 1.32 | 96 | 1010.0 |
| 20260508004502 | 13 | 316 | 0.0 | 0.0 | 0.00 | 1.91 | 1.32 | 96 | 1009.9 |
| 20260508004009 | 13 | 316 | 0.0 | 0.0 | 0.00 | 1.91 | 1.32 | 96 | 1009.8 |
| 20260508003602 | 13 | 316 | 0.0 | 0.0 | 0.00 | 1.91 | 1.32 | 96 | 1009.7 |
| 20260508003003 | 13 | 316 | 0.0 | 0.0 | 0.00 | 1.91 | 1.32 | 96 | 1009.9 |
| 20260508002510 | 13 | 316 | 0.0 | 0.0 | 0.00 | 1.91 | 1.32 | 96 | 1009.9 |
| 20260508002102 | 13 | 316 | 0.0 | 0.0 | 0.00 | 1.91 | 1.32 | 95 | 1009.9 |
| 20260508001503 | 13 | 316 | 0.0 | 0.0 | 0.00 | 1.91 | 1.32 | 96 | 1009.8 |
| 20260508001010 | 13 | 316 | 0.0 | 0.0 | 0.00 | 1.91 | 1.32 | 96 | 1009.8 |
| 20260508000605 | 13 | 316 | 0.0 | 0.0 | 0.00 | 1.91 | 1.32 | 96 | 1009.8 |
| 20260508000007 | 13 | 316 | 0.0 | 0.0 | 0.00 | 1.91 | 1.32 | 96 | 1009.7 |
| 20260507235509 | 13 | 316 | 0.0 | 0.0 | 0.00 | 1.91 | 1.32 | 96 | 1009.7 |
| 20260507235102 | 13 | 316 | 0.0 | 0.0 | 0.00 | 1.91 | 1.32 | 96 | 1009.8 |
| 20260507234509 | 13 | 316 | 0.0 | 0.0 | 0.00 | 1.91 | 1.32 | 96 | 1009.7 |
| 20260507234008 | 13 | 316 | 0.0 | 0.0 | 0.00 | 1.91 | 1.32 | 96 | 1009.7 |
| 20260507233604 | 13 | 316 | 0.0 | 0.0 | 0.00 | 1.91 | 1.32 | 96 | 1009.5 |
| 20260507233004 | 13 | 316 | 0.0 | 1.6 | 0.00 | 1.91 | 1.32 | 96 | 1009.4 |
| 20260507232509 | 13 | 316 | 0.0 | 1.6 | 0.00 | 1.91 | 1.32 | 96 | 1009.3 |
| 20260507232102 | 13 | 315 | 0.0 | 1.6 | 0.03 | 1.91 | 1.32 | 96 | 1009.2 |
| 20260507231503 | 13 | 315 | 0.0 | 1.6 | 0.03 | 1.91 | 1.32 | 96 | 1009.1 |
| 20260507231008 | 13 | 317 | 0.0 | 1.6 | 0.03 | 1.91 | 1.32 | 96 | 1008.9 |
| 20260507230606 | 13 | 316 | 0.0 | 1.6 | 0.03 | 1.91 | 1.32 | 96 | 1008.7 |
| 20260507230004 | 13 | 317 | 0.0 | 3.2 | 0.03 | 1.91 | 1.32 | 96 | 1008.6 |
| 20260507225511 | 13 | 317 | 0.0 | 3.2 | 0.03 | 1.91 | 1.32 | 95 | 1008.6 |
| 20260507225103 | 13 | 1 | 0.0 | 3.2 | 0.03 | 1.91 | 1.32 | 95 | 1008.6 |
| 20260507224506 | 13 | 356 | 0.0 | 4.8 | 0.03 | 1.91 | 1.32 | 95 | 1008.6 |
| 20260507224008 | 13 | 14 | 0.0 | 4.8 | 0.03 | 1.91 | 1.32 | 95 | 1008.7 |
| 20260507223605 | 13 | 323 | 0.0 | 3.2 | 0.03 | 1.91 | 1.32 | 95 | 1008.5 |
| 20260507223002 | 13 | 340 | 0.0 | 3.2 | 0.03 | 1.91 | 1.32 | 96 | 1008.2 |
| 20260507222510 | 13 | 341 | 0.0 | 3.2 | 0.03 | 1.91 | 1.32 | 95 | 1008.2 |
| 20260507222103 | 13 | 341 | 0.0 | 4.8 | 0.00 | 1.88 | 1.30 | 96 | 1008.0 |
| 20260507221504 | 13 | 337 | 1.6 | 11.3 | 0.00 | 1.88 | 1.30 | 95 | 1008.0 |
| 20260507221011 | 13 | 349 | 3.2 | 11.3 | 0.00 | 1.88 | 1.30 | 95 | 1008.1 |
| 20260507220602 | 13 | 318 | 0.0 | 3.2 | 0.03 | 1.88 | 1.30 | 95 | 1008.2 |
| 20260507220002 | 13 | 311 | 0.0 | 6.4 | 0.05 | 1.88 | 1.30 | 95 | 1008.3 |
| 20260507215510 | 13 | 313 | 1.6 | 6.4 | 0.05 | 1.88 | 1.30 | 95 | 1008.3 |
| 20260507215105 | 13 | 219 | 0.0 | 9.7 | 0.05 | 1.88 | 1.30 | 95 | 1008.1 |
| 20260507214503 | 13 | 5 | 3.2 | 9.7 | 0.08 | 1.88 | 1.30 | 95 | 1007.9 |
| 20260507214009 | 13 | 48 | 0.0 | 6.4 | 0.08 | 1.88 | 1.30 | 95 | 1007.8 |
| 20260507213603 | 13 | 316 | 0.0 | 6.4 | 0.08 | 1.88 | 1.30 | 95 | 1007.7 |
| 20260507213111 | 13 | 332 | 0.0 | 6.4 | 0.10 | 1.88 | 1.30 | 95 | 1008.0 |
| 20260507212509 | 14 | 35 | 0.0 | 4.8 | 0.13 | 1.88 | 1.30 | 96 | 1007.8 |
| 20260507212102 | 14 | 31 | 0.0 | 6.4 | 0.15 | 1.88 | 1.30 | 96 | 1007.7 |
| 20260507211505 | 13 | 304 | 1.6 | 4.8 | 0.25 | 1.88 | 1.30 | 96 | 1007.8 |
| 20260507211009 | 13 | 306 | 0.0 | 4.8 | 0.41 | 1.88 | 1.30 | 96 | 1007.8 |
| 20260507210603 | 13 | 306 | 0.0 | 8.0 | 0.43 | 1.85 | 1.27 | 96 | 1007.8 |
| 20260507210006 | 13 | 67 | 1.6 | 8.0 | 0.46 | 1.83 | 1.24 | 95 | 1008.0 |
| 20260507205508 | 13 | 314 | 0.0 | 6.4 | 0.46 | 1.83 | 1.24 | 95 | 1007.8 |
| 20260507205101 | 13 | 82 | 1.6 | 6.4 | 0.46 | 1.83 | 1.24 | 95 | 1008.0 |
| 20260507204503 | 13 | 305 | 0.0 | 8.0 | 0.43 | 1.80 | 1.22 | 95 | 1007.8 |
| 20260507204012 | 13 | 349 | 3.2 | 8.0 | 0.43 | 1.80 | 1.22 | 94 | 1007.8 |
| 20260507203603 | 13 | 13 | 3.2 | 9.7 | 0.43 | 1.80 | 1.22 | 94 | 1007.8 |
| 20260507203002 | 13 | 335 | 3.2 | 14.5 | 0.41 | 1.78 | 1.19 | 94 | 1007.5 |
| 20260507202509 | 13 | 153 | 0.0 | 11.3 | 0.38 | 1.75 | 1.17 | 94 | 1007.1 |
| 20260507201502 | 14 | 320 | 4.8 | 9.7 | 0.23 | 1.60 | 1.02 | 92 | 1007.9 |
| 20260507201009 | 14 | 15 | 1.6 | 6.4 | 0.10 | 1.45 | 0.89 | 91 | 1008.2 |
| 20260507200603 | 15 | 307 | 1.6 | 6.4 | 0.03 | 1.40 | 0.81 | 91 | 1007.6 |
| 20260507200004 | 15 | 1 | 1.6 | 11.3 | 0.00 | 1.37 | 0.79 | 90 | 1007.4 |
| 20260507195509 | 15 | 348 | 4.8 | 8.0 | 0.00 | 1.37 | 0.79 | 89 | 1007.4 |
| 20260507195105 | 15 | 4 | 1.6 | 6.4 | 0.00 | 1.37 | 0.79 | 89 | 1007.5 |
| 20260507194502 | 16 | 349 | 1.6 | 6.4 | 0.00 | 1.37 | 0.79 | 89 | 1007.0 |
| 20260507194009 | 16 | 25 | 3.2 | 6.4 | 0.00 | 1.37 | 0.79 | 89 | 1006.8 |
| 20260507193603 | 16 | 72 | 3.2 | 6.4 | 0.00 | 1.37 | 0.79 | 89 | 1007.2 |
| 20260507193003 | 16 | 86 | 1.6 | 6.4 | 0.00 | 1.37 | 0.79 | 90 | 1007.2 |
| 20260507192508 | 16 | 70 | 1.6 | 8.0 | 0.00 | 1.37 | 0.79 | 91 | 1007.0 |
| 20260507192102 | 16 | 27 | 1.6 | 8.0 | 0.00 | 1.37 | 0.79 | 89 | 1007.0 |
| 20260507191503 | 16 | 24 | 1.6 | 9.7 | 0.00 | 1.37 | 0.79 | 90 | 1006.7 |
| 20260507191008 | 16 | 340 | 3.2 | 9.7 | 0.00 | 1.37 | 0.79 | 91 | 1006.8 |
| 20260507190602 | 16 | 68 | 0.0 | 12.9 | 0.00 | 1.37 | 0.79 | 92 | 1006.9 |
| 20260507190004 | 16 | 294 | 1.6 | 12.9 | 0.00 | 1.37 | 0.79 | 91 | 1007.1 |
| 20260507185509 | 16 | 4 | 1.6 | 8.0 | 0.00 | 1.37 | 0.79 | 93 | 1007.2 |
| 20260507185102 | 16 | 19 | 1.6 | 8.0 | 0.00 | 1.37 | 0.79 | 93 | 1007.2 |
| 20260507184503 | 16 | 35 | 0.0 | 4.8 | 0.00 | 1.37 | 0.79 | 93 | 1007.3 |
| 20260507184009 | 16 | 66 | 0.0 | 6.4 | 0.00 | 1.37 | 0.79 | 92 | 1007.1 |
| 20260507183604 | 16 | 51 | 1.6 | 6.4 | 0.00 | 1.37 | 0.79 | 92 | 1007.1 |
| 20260507183007 | 17 | 323 | 1.6 | 8.0 | 0.00 | 1.37 | 0.79 | 92 | 1007.3 |
| 20260507182510 | 17 | 306 | 3.2 | 9.7 | 0.00 | 1.37 | 0.79 | 91 | 1007.2 |
| 20260507182103 | 17 | 317 | 1.6 | 11.3 | 0.00 | 1.37 | 0.79 | 92 | 1007.3 |
| 20260507181503 | 17 | 1 | 3.2 | 12.9 | 0.00 | 1.37 | 0.79 | 92 | 1007.4 |
| 20260507181009 | 17 | 41 | 3.2 | 8.0 | 0.00 | 1.37 | 0.79 | 92 | 1007.3 |
| 20260507180603 | 17 | 46 | 1.6 | 11.3 | 0.00 | 1.37 | 0.79 | 91 | 1007.2 |
| 20260507180003 | 17 | 357 | 3.2 | 17.7 | 0.00 | 1.37 | 0.79 | 92 | 1007.0 |
| 20260507175512 | 17 | 1 | 4.8 | 17.7 | 0.00 | 1.45 | 0.79 | 91 | 1007.0 |
| 20260507175103 | 17 | 335 | 3.2 | 9.7 | 0.00 | 1.45 | 0.79 | 92 | 1007.0 |
| 20260507174504 | 18 | 24 | 1.6 | 8.0 | 0.00 | 1.45 | 0.79 | 92 | 1007.3 |
| 20260507174008 | 18 | 315 | 1.6 | 12.9 | 0.00 | 1.45 | 0.79 | 91 | 1007.3 |
| 20260507173603 | 18 | 349 | 3.2 | 12.9 | 0.00 | 1.45 | 0.79 | 90 | 1007.4 |
| 20260507173003 | 19 | 352 | 4.8 | 12.9 | 0.00 | 1.45 | 0.79 | 90 | 1007.3 |
| 20260507172509 | 19 | 239 | 0.0 | 3.2 | 0.00 | 1.45 | 0.79 | 93 | 1007.3 |
| 20260507172103 | 19 | 239 | 0.0 | 3.2 | 0.00 | 1.45 | 0.79 | 93 | 1007.3 |
| 20260507171502 | 19 | 210 | 0.0 | 3.2 | 0.00 | 1.45 | 0.79 | 94 | 1007.4 |
| 20260507171009 | 19 | 210 | 0.0 | 3.2 | 0.00 | 1.45 | 0.79 | 95 | 1007.4 |
| 20260507170603 | 19 | 208 | 0.0 | 3.2 | 0.00 | 1.45 | 0.79 | 94 | 1007.3 |
| 20260507170002 | 19 | 208 | 0.0 | 3.2 | 0.00 | 1.45 | 0.79 | 96 | 1007.3 |
| 20260507165509 | 19 | 151 | 0.0 | 1.6 | 0.00 | 1.45 | 0.79 | 96 | 1007.4 |
| 20260507165106 | 19 | 151 | 0.0 | 3.2 | 0.00 | 1.45 | 0.79 | 96 | 1007.5 |
| 20260507164502 | 18 | 151 | 0.0 | 3.2 | 0.00 | 1.45 | 0.79 | 95 | 1007.8 |
| 20260507164008 | 18 | 135 | 0.0 | 3.2 | 0.00 | 1.45 | 0.79 | 95 | 1007.6 |
| 20260507163603 | 18 | 135 | 0.0 | 4.8 | 0.00 | 1.45 | 0.79 | 96 | 1007.2 |
| 20260507163002 | 18 | 354 | 0.0 | 4.8 | 0.00 | 1.45 | 0.79 | 95 | 1007.0 |
| 20260507162509 | 18 | 21 | 1.6 | 4.8 | 0.03 | 1.45 | 0.79 | 97 | 1007.0 |
| 20260507162103 | 18 | 192 | 0.0 | 3.2 | 0.03 | 1.45 | 0.79 | 97 | 1006.9 |
| 20260507161503 | 18 | 192 | 0.0 | 3.2 | 0.03 | 1.45 | 0.79 | 98 | 1006.8 |
| 20260507161008 | 18 | 192 | 0.0 | 3.2 | 0.03 | 1.45 | 0.79 | 97 | 1007.0 |
| 20260507160603 | 18 | 190 | 0.0 | 3.2 | 0.03 | 1.45 | 0.79 | 97 | 1007.0 |
| 20260507160004 | 18 | 189 | 0.0 | 1.6 | 0.03 | 1.45 | 0.79 | 97 | 1007.2 |
| 20260507155508 | 18 | 189 | 0.0 | 1.6 | 0.03 | 1.45 | 0.79 | 97 | 1007.2 |
| 20260507155104 | 18 | 189 | 0.0 | 0.0 | 0.03 | 1.45 | 0.79 | 97 | 1007.4 |
| 20260507154502 | 18 | 189 | 0.0 | 1.6 | 0.03 | 1.45 | 0.79 | 97 | 1007.3 |
| 20260507154010 | 17 | 189 | 0.0 | 0.0 | 0.03 | 1.45 | 0.79 | 97 | 1007.8 |
| 20260507153602 | 17 | 189 | 0.0 | 1.6 | 0.03 | 1.45 | 0.79 | 97 | 1007.8 |
| 20260507153003 | 17 | 189 | 0.0 | 1.6 | 0.03 | 1.45 | 0.79 | 97 | 1007.9 |
| 20260507152509 | 17 | 189 | 0.0 | 0.0 | 0.00 | 1.42 | 0.76 | 97 | 1008.1 |
| 20260507152106 | 17 | 189 | 0.0 | 0.0 | 0.03 | 1.42 | 0.76 | 97 | 1008.1 |
| 20260507151503 | 17 | 189 | 0.0 | 1.6 | 0.05 | 1.42 | 0.76 | 97 | 1008.0 |
| 20260507151008 | 17 | 190 | 0.0 | 1.6 | 0.05 | 1.42 | 0.76 | 97 | 1008.2 |
| 20260507150602 | 17 | 190 | 0.0 | 1.6 | 0.08 | 1.42 | 0.76 | 97 | 1008.3 |
| 20260507150005 | 17 | 190 | 0.0 | 4.8 | 0.08 | 1.42 | 0.76 | 97 | 1008.6 |
| 20260507145509 | 17 | 192 | 0.0 | 6.4 | 0.10 | 1.42 | 0.76 | 97 | 1008.9 |
| 20260507145102 | 17 | 196 | 0.0 | 6.4 | 0.10 | 1.42 | 0.76 | 97 | 1008.9 |
| 20260507144502 | 17 | 162 | 0.0 | 3.2 | 0.10 | 1.42 | 0.76 | 97 | 1008.1 |
| 20260507144009 | 17 | 162 | 0.0 | 1.6 | 0.13 | 1.42 | 0.76 | 97 | 1007.7 |
| 20260507143602 | 17 | 162 | 0.0 | 0.0 | 0.13 | 1.42 | 0.76 | 97 | 1007.6 |
| 20260507143003 | 17 | 162 | 0.0 | 1.6 | 0.13 | 1.42 | 0.76 | 97 | 1007.7 |
| 20260507142509 | 17 | 162 | 0.0 | 4.8 | 0.13 | 1.42 | 0.76 | 97 | 1007.8 |
| 20260507142103 | 17 | 162 | 0.0 | 4.8 | 0.13 | 1.42 | 0.71 | 97 | 1008.0 |
| 20260507141502 | 17 | 162 | 0.0 | 1.6 | 0.10 | 1.40 | 0.71 | 97 | 1008.1 |
| 20260507141012 | 17 | 162 | 0.0 | 1.6 | 0.10 | 1.40 | 0.71 | 97 | 1008.0 |
| 20260507140604 | 17 | 162 | 0.0 | 1.6 | 0.10 | 1.37 | 0.69 | 97 | 1008.2 |
| 20260507140002 | 17 | 162 | 0.0 | 1.6 | 0.13 | 1.37 | 0.69 | 97 | 1008.0 |
| 20260507135508 | 17 | 162 | 0.0 | 0.0 | 0.10 | 1.35 | 0.66 | 97 | 1008.0 |
| 20260507135102 | 17 | 162 | 0.0 | 0.0 | 0.13 | 1.35 | 0.66 | 97 | 1007.9 |
| 20260507134507 | 17 | 162 | 0.0 | 0.0 | 0.15 | 1.35 | 0.66 | 97 | 1007.3 |
| 20260507134012 | 17 | 162 | 0.0 | 0.0 | 0.15 | 1.32 | 0.64 | 97 | 1007.1 |
| 20260507133603 | 17 | 162 | 0.0 | 0.0 | 0.20 | 1.32 | 0.64 | 97 | 1007.0 |
| 20260507133005 | 17 | 162 | 0.0 | 0.0 | 0.25 | 1.32 | 0.64 | 97 | 1007.1 |
| 20260507132512 | 17 | 162 | 0.0 | 0.0 | 0.28 | 1.32 | 0.64 | 97 | 1007.2 |
| 20260507132103 | 17 | 162 | 0.0 | 0.0 | 0.25 | 1.30 | 0.61 | 97 | 1007.7 |
| 20260507131506 | 17 | 162 | 0.0 | 0.0 | 0.25 | 1.30 | 0.61 | 97 | 1008.1 |
| 20260507131008 | 17 | 162 | 0.0 | 1.6 | 0.25 | 1.30 | 0.61 | 97 | 1008.0 |
| 20260507130601 | 17 | 162 | 0.0 | 1.6 | 0.25 | 1.27 | 0.58 | 97 | 1008.2 |
| 20260507130003 | 17 | 162 | 0.0 | 0.0 | 0.23 | 1.24 | 0.56 | 97 | 1008.5 |
| 20260507125509 | 17 | 162 | 0.0 | 1.6 | 0.25 | 1.24 | 0.56 | 97 | 1008.7 |
| 20260507125101 | 17 | 162 | 0.0 | 1.6 | 0.23 | 1.22 | 0.53 | 97 | 1009.0 |
| 20260507124502 | 17 | 162 | 0.0 | 1.6 | 0.25 | 1.19 | 0.51 | 97 | 1009.1 |
| 20260507124009 | 17 | 162 | 0.0 | 1.6 | 0.28 | 1.17 | 0.48 | 97 | 1009.2 |
| 20260507123604 | 17 | 162 | 0.0 | 1.6 | 0.23 | 1.12 | 0.43 | 97 | 1009.3 |
| 20260507123006 | 17 | 162 | 0.0 | 0.0 | 0.18 | 1.07 | 0.38 | 97 | 1009.3 |
| 20260507122511 | 17 | 162 | 0.0 | 0.0 | 0.15 | 1.04 | 0.36 | 97 | 1009.1 |
| 20260507122102 | 17 | 162 | 0.0 | 1.6 | 0.15 | 1.04 | 0.36 | 97 | 1008.8 |
| 20260507121502 | 17 | 162 | 0.0 | 3.2 | 0.15 | 1.04 | 0.36 | 97 | 1008.7 |
| 20260507121009 | 17 | 162 | 0.0 | 4.8 | 0.13 | 1.02 | 0.33 | 97 | 1008.6 |
| 20260507120603 | 17 | 162 | 0.0 | 4.8 | 0.13 | 1.02 | 0.33 | 97 | 1008.6 |
| 20260507120002 | 17 | 167 | 0.0 | 3.2 | 0.13 | 1.02 | 0.33 | 97 | 1008.7 |
| 20260507115508 | 17 | 167 | 0.0 | 3.2 | 0.10 | 0.99 | 0.30 | 97 | 1008.7 |
| 20260507115101 | 17 | 169 | 0.0 | 3.2 | 0.10 | 0.97 | 0.28 | 97 | 1008.7 |
| 20260507114503 | 17 | 200 | 0.0 | 1.6 | 0.08 | 0.94 | 0.25 | 97 | 1008.6 |
| 20260507114008 | 17 | 200 | 0.0 | 1.6 | 0.03 | 0.89 | 0.20 | 97 | 1008.5 |
| 20260507113605 | 17 | 200 | 0.0 | 1.6 | 0.03 | 0.89 | 0.20 | 97 | 1008.6 |
| 20260507113002 | 17 | 200 | 0.0 | 0.0 | 0.03 | 0.89 | 0.20 | 97 | 1008.2 |
| 20260507112509 | 17 | 200 | 0.0 | 0.0 | 0.03 | 0.89 | 0.20 | 97 | 1008.1 |
| 20260507112102 | 17 | 200 | 0.0 | 0.0 | 0.03 | 0.89 | 0.20 | 97 | 1008.2 |
| 20260507111507 | 17 | 200 | 0.0 | 0.0 | 0.05 | 0.89 | 0.20 | 97 | 1008.3 |
| 20260507111008 | 17 | 200 | 0.0 | 0.0 | 0.05 | 0.89 | 0.20 | 97 | 1008.0 |
| 20260507110602 | 17 | 200 | 0.0 | 0.0 | 0.05 | 0.89 | 0.20 | 97 | 1007.8 |
| 20260507110002 | 17 | 200 | 0.0 | 0.0 | 0.05 | 0.89 | 0.20 | 97 | 1008.1 |
| 20260507105508 | 17 | 200 | 0.0 | 0.0 | 0.05 | 0.89 | 0.20 | 97 | 1007.9 |
| 20260507105105 | 17 | 200 | 0.0 | 0.0 | 0.03 | 0.86 | 0.18 | 97 | 1008.1 |
| 20260507104506 | 17 | 200 | 0.0 | 0.0 | 0.03 | 0.86 | 0.18 | 97 | 1008.3 |
| 20260507104008 | 17 | 200 | 0.0 | 0.0 | 0.03 | 0.86 | 0.18 | 97 | 1008.2 |
| 20260507103604 | 17 | 200 | 0.0 | 0.0 | 0.03 | 0.86 | 0.18 | 97 | 1008.3 |
| 20260507103002 | 17 | 200 | 0.0 | 0.0 | 0.03 | 0.86 | 0.18 | 97 | 1008.2 |
| 20260507102510 | 17 | 200 | 0.0 | 0.0 | 0.05 | 0.86 | 0.18 | 97 | 1008.2 |
| 20260507102105 | 17 | 200 | 0.0 | 0.0 | 0.05 | 0.86 | 0.18 | 97 | 1008.0 |
| 20260507101512 | 17 | 200 | 0.0 | 0.0 | 0.03 | 0.84 | 0.15 | 97 | 1008.2 |
| 20260507101014 | 17 | 200 | 0.0 | 1.6 | 0.03 | 0.84 | 0.15 | 97 | 1008.2 |
| 20260507100605 | 17 | 200 | 0.0 | 1.6 | 0.03 | 0.84 | 0.15 | 97 | 1008.0 |
| 20260507100004 | 17 | 200 | 0.0 | 0.0 | 0.03 | 0.84 | 0.15 | 97 | 1008.2 |
| 20260507095509 | 17 | 200 | 0.0 | 0.0 | 0.03 | 0.84 | 0.15 | 97 | 1008.2 |
| 20260507095104 | 17 | 200 | 0.0 | 0.0 | 0.03 | 0.84 | 0.15 | 97 | 1008.2 |
| 20260507094504 | 17 | 200 | 0.0 | 0.0 | 0.03 | 0.84 | 0.15 | 97 | 1008.1 |
| 20260507094010 | 17 | 200 | 0.0 | 0.0 | 0.03 | 0.84 | 0.15 | 97 | 1008.4 |
| 20260507093604 | 17 | 200 | 0.0 | 0.0 | 0.03 | 0.84 | 0.15 | 97 | 1008.6 |
| 20260507093004 | 17 | 200 | 0.0 | 0.0 | 0.00 | 0.81 | 0.13 | 97 | 1008.2 |
| 20260507092509 | 17 | 200 | 0.0 | 0.0 | 0.00 | 0.81 | 0.13 | 97 | 1008.3 |
| 20260507091503 | 17 | 200 | 0.0 | 1.6 | 0.03 | 0.81 | 0.13 | 97 | 1008.4 |
| 20260507091010 | 17 | 200 | 0.0 | 0.0 | 0.03 | 0.81 | 0.13 | 97 | 1008.4 |
| 20260507090603 | 17 | 200 | 0.0 | 1.6 | 0.03 | 0.81 | 0.13 | 97 | 1008.2 |
| 20260507090006 | 17 | 200 | 0.0 | 3.2 | 0.03 | 0.81 | 0.13 | 97 | 1008.4 |
| 20260507085509 | 17 | 200 | 0.0 | 4.8 | 0.03 | 0.81 | 0.13 | 97 | 1007.9 |
| 20260507085103 | 17 | 196 | 1.6 | 4.8 | 0.03 | 0.81 | 0.13 | 97 | 1007.7 |
| 20260507084609 | 17 | 194 | 0.0 | 3.2 | 0.03 | 0.81 | 0.13 | 97 | 1007.8 |
| 20260507084010 | 17 | 194 | 0.0 | 1.6 | 0.03 | 0.81 | 0.13 | 97 | 1007.7 |
| 20260507083603 | 17 | 194 | 0.0 | 1.6 | 0.03 | 0.81 | 0.13 | 97 | 1007.7 |
| 20260507083004 | 17 | 194 | 0.0 | 1.6 | 0.03 | 0.81 | 0.13 | 97 | 1007.7 |
| 20260507082509 | 17 | 194 | 0.0 | 1.6 | 0.03 | 0.81 | 0.13 | 97 | 1007.9 |
| 20260507082103 | 17 | 194 | 0.0 | 0.0 | 0.03 | 0.81 | 0.13 | 97 | 1008.0 |
| 20260507081510 | 17 | 194 | 0.0 | 3.2 | 0.00 | 0.79 | 0.10 | 97 | 1008.0 |
| 20260507081009 | 17 | 194 | 0.0 | 3.2 | 0.00 | 0.79 | 0.10 | 97 | 1008.1 |
| 20260507080604 | 17 | 194 | 0.0 | 3.2 | 0.00 | 0.79 | 0.10 | 97 | 1008.1 |
| 20260507080004 | 17 | 194 | 0.0 | 1.6 | 0.00 | 0.79 | 0.10 | 97 | 1008.1 |
| 20260507075509 | 17 | 194 | 0.0 | 3.2 | 0.00 | 0.79 | 0.10 | 97 | 1008.2 |
| 20260507075106 | 17 | 194 | 0.0 | 3.2 | 0.00 | 0.79 | 0.10 | 97 | 1008.5 |
| 20260507074517 | 17 | 194 | 0.0 | 3.2 | 0.00 | 0.79 | 0.10 | 97 | 1008.3 |
| 20260507074011 | 17 | 194 | 0.0 | 3.2 | 0.00 | 0.79 | 0.10 | 97 | 1008.7 |
| 20260507073603 | 17 | 194 | 0.0 | 1.6 | 0.00 | 0.79 | 0.10 | 97 | 1008.9 |
| 20260507073004 | 17 | 194 | 0.0 | 1.6 | 0.00 | 0.79 | 0.10 | 97 | 1009.2 |
| 20260507072510 | 17 | 194 | 0.0 | 1.6 | 0.00 | 0.79 | 0.10 | 97 | 1009.3 |
| 20260507072105 | 17 | 194 | 0.0 | 3.2 | 0.00 | 0.79 | 0.10 | 97 | 1009.1 |
| 20260507071504 | 17 | 194 | 0.0 | 4.8 | 0.00 | 0.79 | 0.10 | 97 | 1009.0 |
| 20260507071009 | 17 | 194 | 0.0 | 3.2 | 0.00 | 0.79 | 0.10 | 97 | 1008.9 |
| 20260507070604 | 17 | 194 | 0.0 | 3.2 | 0.03 | 0.79 | 0.10 | 97 | 1008.8 |
| 20260507070010 | 17 | 194 | 0.0 | 3.2 | 0.05 | 0.79 | 0.10 | 97 | 1008.8 |
| 20260507065514 | 17 | 194 | 0.0 | 3.2 | 0.05 | 0.79 | 0.10 | 97 | 1008.9 |
| 20260507065104 | 17 | 194 | 0.0 | 0.0 | 0.05 | 0.79 | 0.10 | 97 | 1009.0 |
| 20260507064505 | 17 | 194 | 0.0 | 0.0 | 0.05 | 0.79 | 0.10 | 97 | 1009.3 |
| 20260507064009 | 17 | 194 | 0.0 | 0.0 | 0.05 | 0.79 | 0.10 | 97 | 1009.4 |
| 20260507063604 | 17 | 194 | 0.0 | 0.0 | 0.05 | 0.79 | 0.10 | 97 | 1009.4 |
| 20260507063005 | 17 | 194 | 0.0 | 0.0 | 0.05 | 0.79 | 0.10 | 97 | 1009.4 |
| 20260507062510 | 17 | 194 | 0.0 | 0.0 | 0.05 | 0.79 | 0.10 | 96 | 1009.9 |
| 20260507062104 | 17 | 194 | 0.0 | 0.0 | 0.08 | 0.79 | 0.10 | 96 | 1009.8 |
| 20260507061504 | 17 | 194 | 0.0 | 3.2 | 0.10 | 0.79 | 0.10 | 96 | 1009.6 |
| 20260507061009 | 17 | 194 | 0.0 | 3.2 | 0.10 | 0.79 | 0.10 | 96 | 1010.1 |
| 20260507060604 | 17 | 194 | 0.0 | 1.6 | 0.08 | 0.76 | 0.08 | 96 | 1009.6 |
| 20260507060004 | 17 | 194 | 0.0 | 1.6 | 0.05 | 0.71 | 0.05 | 96 | 1010.3 |
| 20260507055511 | 17 | 194 | 0.0 | 1.6 | 0.05 | 0.71 | 0.05 | 96 | 1010.8 |
| 20260507055103 | 17 | 194 | 0.0 | 0.0 | 0.05 | 0.71 | 0.05 | 96 | 1010.5 |
| 20260507054503 | 17 | 194 | 0.0 | 0.0 | 0.05 | 0.71 | 0.05 | 96 | 1010.4 |
| 20260507054013 | 17 | 194 | 0.0 | 0.0 | 0.05 | 0.71 | 0.05 | 96 | 1010.2 |
| 20260507053603 | 17 | 194 | 0.0 | 0.0 | 0.05 | 0.71 | 0.05 | 96 | 1010.4 |
| 20260507053006 | 17 | 194 | 0.0 | 1.6 | 0.05 | 0.71 | 0.05 | 96 | 1010.5 |
| 20260507052513 | 17 | 194 | 0.0 | 1.6 | 0.03 | 0.71 | 0.03 | 96 | 1010.5 |
| 20260507052104 | 17 | 194 | 0.0 | 1.6 | 0.03 | 0.71 | 0.03 | 96 | 1010.5 |
| 20260507051503 | 17 | 194 | 0.0 | 1.6 | 0.00 | 0.69 | 0.00 | 96 | 1010.9 |
| 20260507051010 | 17 | 194 | 0.0 | 1.6 | 0.00 | 0.69 | 0.00 | 96 | 1011.2 |
| 20260507050603 | 17 | 194 | 0.0 | 3.2 | 0.00 | 0.69 | 0.00 | 96 | 1011.0 |
| 20260507050005 | 17 | 194 | 0.0 | 3.2 | 0.00 | 0.69 | 0.00 | 96 | 1010.5 |
| 20260507045510 | 17 | 195 | 0.0 | 4.8 | 0.00 | 0.69 | 0.00 | 96 | 1010.5 |
| 20260507045102 | 17 | 195 | 0.0 | 4.8 | 0.03 | 0.69 | 0.00 | 96 | 1010.4 |
| 20260507044503 | 17 | 183 | 0.0 | 3.2 | 0.05 | 0.69 | 0.00 | 96 | 1010.6 |
| 20260507044009 | 17 | 172 | 0.0 | 3.2 | 0.05 | 0.69 | 0.00 | 96 | 1010.4 |
| 20260507043603 | 17 | 174 | 0.0 | 0.0 | 0.05 | 0.69 | 0.00 | 96 | 1010.4 |
| 20260507043003 | 17 | 186 | 0.0 | 0.0 | 0.08 | 0.69 | 0.00 | 96 | 1010.7 |
| 20260507042510 | 17 | 163 | 0.0 | 0.0 | 0.08 | 0.69 | 0.00 | 96 | 1010.6 |
| 20260507042105 | 17 | 106 | 0.0 | 0.0 | 0.10 | 0.69 | 0.00 | 96 | 1010.6 |
| 20260507041506 | 17 | 105 | 0.0 | 0.0 | 0.13 | 0.69 | 0.00 | 96 | 1010.6 |
| 20260507041003 | 17 | 39 | 0.0 | 0.0 | 0.15 | 0.69 | 0.00 | 96 | 1010.6 |
| 20260507040604 | 17 | 355 | 0.0 | 0.0 | 0.18 | 0.69 | 0.00 | 96 | 1010.3 |
| 20260507040005 | 17 | 215 | 0.0 | 0.0 | 0.23 | 0.69 | 0.00 | 95 | 1009.6 |
| 20260507035510 | 17 | 17 | 0.0 | 0.0 | 0.30 | 0.69 | 0.69 | 95 | 1007.5 |
| 20260507035104 | 17 | 39 | 0.0 | 0.0 | 0.36 | 0.66 | 0.66 | 95 | 1009.9 |
| 20260507034505 | 17 | 176 | 0.0 | 0.0 | 0.36 | 0.64 | 0.64 | 95 | 1010.0 |
| 20260507034009 | 17 | 221 | 0.0 | 0.0 | 0.38 | 0.64 | 0.64 | 95 | 1010.4 |
| 20260507033604 | 17 | 150 | 0.0 | 0.0 | 0.41 | 0.64 | 0.64 | 95 | 1010.4 |
| 20260507033004 | 17 | 150 | 0.0 | 0.0 | 0.41 | 0.61 | 0.61 | 95 | 1011.2 |
| 20260507032510 | 17 | 150 | 0.0 | 4.8 | 0.41 | 0.61 | 0.61 | 95 | 1011.9 |
| 20260507032106 | 17 | 202 | 0.0 | 4.8 | 0.41 | 0.58 | 0.58 | 95 | 1012.2 |
| 20260507031510 | 17 | 124 | 0.0 | 6.4 | 0.41 | 0.56 | 0.56 | 94 | 1011.9 |
| 20260507031010 | 17 | 182 | 0.0 | 8.0 | 0.38 | 0.53 | 0.53 | 94 | 1012.0 |
| 20260507030605 | 18 | 167 | 0.0 | 8.0 | 0.33 | 0.48 | 0.48 | 94 | 1011.9 |
| 20260507030004 | 18 | 176 | 0.0 | 11.3 | 0.28 | 0.43 | 0.43 | 94 | 1011.9 |
| 20260507025510 | 18 | 159 | 0.0 | 11.3 | 0.20 | 0.36 | 0.36 | 94 | 1011.8 |
| 20260507025104 | 18 | 165 | 0.0 | 9.7 | 0.15 | 0.30 | 0.30 | 94 | 1012.0 |
| 20260507024503 | 18 | 147 | 0.0 | 9.7 | 0.13 | 0.25 | 0.25 | 94 | 1011.5 |
| 20260507024009 | 18 | 176 | 0.0 | 6.4 | 0.13 | 0.25 | 0.25 | 94 | 1011.2 |
| 20260507023603 | 18 | 160 | 0.0 | 6.4 | 0.10 | 0.23 | 0.23 | 94 | 1011.0 |
| 20260507023003 | 18 | 195 | 0.0 | 4.8 | 0.08 | 0.20 | 0.20 | 94 | 1010.8 |
| 20260507022510 | 18 | 191 | 0.0 | 4.8 | 0.08 | 0.20 | 0.20 | 94 | 1010.9 |
| 20260507022107 | 18 | 179 | 0.0 | 6.4 | 0.05 | 0.18 | 0.18 | 94 | 1011.1 |
| 20260507021609 | 18 | 183 | 0.0 | 9.7 | 0.03 | 0.15 | 0.15 | 94 | 1011.2 |
| 20260507020603 | 18 | 205 | 0.0 | 9.7 | 0.03 | 0.15 | 0.15 | 94 | 1010.7 |
| 20260507020005 | 18 | 228 | 0.0 | 9.7 | 0.03 | 0.15 | 0.15 | 94 | 1010.5 |
| 20260507015514 | 18 | 174 | 0.0 | 3.2 | 0.03 | 0.15 | 0.15 | 94 | 1010.5 |
| 20260507015104 | 18 | 184 | 0.0 | 3.2 | 0.03 | 0.15 | 0.15 | 93 | 1010.3 |
| 20260507014505 | 18 | 217 | 0.0 | 1.6 | 0.00 | 0.13 | 0.13 | 93 | 1010.2 |
| 20260507014010 | 18 | 217 | 0.0 | 1.6 | 0.03 | 0.13 | 0.13 | 93 | 1010.1 |
| 20260507013604 | 18 | 217 | 0.0 | 1.6 | 0.03 | 0.13 | 0.13 | 93 | 1009.8 |
| 20260507013004 | 18 | 217 | 0.0 | 0.0 | 0.03 | 0.13 | 0.13 | 93 | 1010.0 |
| 20260507012512 | 18 | 217 | 0.0 | 0.0 | 0.03 | 0.13 | 0.13 | 93 | 1009.8 |
| 20260507012104 | 18 | 217 | 0.0 | 0.0 | 0.03 | 0.13 | 0.13 | 92 | 1009.8 |
| 20260507011504 | 19 | 217 | 0.0 | 0.0 | 0.03 | 0.13 | 0.13 | 92 | 1009.9 |
| 20260507011010 | 19 | 217 | 0.0 | 0.0 | 0.03 | 0.13 | 0.13 | 92 | 1010.0 |
| 20260507010603 | 19 | 217 | 0.0 | 0.0 | 0.03 | 0.13 | 0.13 | 92 | 1010.1 |
| 20260507010003 | 19 | 217 | 0.0 | 0.0 | 0.03 | 0.13 | 0.13 | 91 | 1010.1 |
| 20260507005510 | 19 | 217 | 0.0 | 0.0 | 0.03 | 0.13 | 0.13 | 91 | 1010.2 |